Hourly Weather Roundup
Issued by NWS Central Illinois

Home | Current Version | Previous Version | Text Only | Print | Product List | Glossary On
Versions: 1 2 3 4 5 6 7 8 9 10 11 12 13 14 15 16 17 18 19 20 21 22 23 24 25 26 27 28 29 30 31 32 33 34 35 36 37 38 39 40 41 42 43 44 45 46 47 48 49 50
477
NZUS43 KILX 192110
HWRILX

Area Weather Roundup
National Weather Service Lincoln IL
400 PM CDT THU APR 19 2018

NOTE:  "FAIR" indicates few or no clouds below 12,000 feet, with
       no sigificant weather and/or obstructions to visibility.


CITY           SKY/WX    TMP DP  RH WIND       PRES   REMARKS
Bloomington    FAIR      54  27  35 N13       30.39S
Champaign      FAIR      55  27  34 NW9G23    30.36S
Danville       FAIR      54  32  43 N14       30.33S
Decatur        FAIR      56  30  37 N14G21    30.38S
Effingham      FAIR      55  34  44 N10       30.38F
Flora          FAIR      55  36  48 N13       30.37F
Galesburg      FAIR      58  29  34 N9        30.42F
Jacksonville   FAIR      55  28  35 N7        30.40F
Lacon          FAIR      54  28  37 N10       30.40S
Lawrenceville  FAIR      56  31  38 N13       30.36S
Litchfield     FAIR      53  33  45 N9G17     30.39F
$$


CITY           SKY/WX    TMP DP  RH WIND       PRES   REMARKS
Lincoln        FAIR      55  30  37 N8        30.40R
Macomb         FAIR      55  26  32 N7        30.44S
Mattoon        FAIR      55  30  38 N12G22    30.35F
Mt Carmel AP   FAIR      53  32  44 N9G18     30.36S
Olney-Noble AP FAIR      53  29  40 NE14      30.37S
Paris AP       FAIR      55  35  45 N7        30.36S
Peoria         FAIR      56  25  30 N9        30.40F
Pontiac        FAIR      54  29  38 NW15      30.40S
Rantoul        FAIR      56  31  38 N9G20     30.36F
Robinson       FAIR      54  33  45 N12G18    30.36F
Springfield    FAIR      58  28  32 N10G18    30.40F
Taylorville    FAIR      55  29  37 N9        30.39F
$$

...REGIONAL REPORTS...


CITY           SKY/WX    TMP DP  RH WIND       PRES   REMARKS
Chicago O`Hare FAIR      54  22  28 N13       30.37R
Kankakee       FAIR      54  25  33 N8        30.37F
La Salle       FAIR      55  30  38 N12G17    30.41S
Moline         FAIR      54  26  34 N9        30.42F
Mount Sterling FAIR      55  28  36 NW9       30.41S
Mount Vernon   PTSUNNY   53  33  46 N9        30.38F
Pittsfield     FAIR      56  31  38 N7        30.41F
Quincy         FAIR      57  31  37 N12G24    30.41F
Rockford       FAIR      54  22  28 N12       30.42S
$$


CITY           SKY/WX    TMP DP  RH WIND       PRES   REMARKS
Burlington     FAIR      55  23  28 E10       30.42S
Cedar Rapids   FAIR      53  25  33 N12       30.44S
Des Moines     FAIR      53  23  31 E7        30.45F
Kirksville     FAIR      56  30  37 NE8       30.44F
Ottumwa        FAIR      56  26  31 N9        30.44F
St Louis       FAIR      54  32  43 VRB3G21   30.41F
$$


CITY           SKY/WX    TMP DP  RH WIND       PRES   REMARKS
Terre Haute    FAIR      55  32  41 NW9G20    30.34F
Evansville     FAIR      52  34  50 N10G22    30.36S
Indianapolis   FAIR      55  29  36 N15G22    30.31S
Lafayette      FAIR      54  25  32 N14G22    30.33S
Madison        FAIR      47  23  38 NW8       30.41S
Milwaukee      FAIR      49  21  33 NW10      30.39R
$$






USA.gov is the U.S. government's official web portal to all federal, state and local government web resources and services.